Погода в Хямеэнлинна

Финляндия     60°59′47″N   24°27′54″E
темп.,
°C
ветер,
м/с
пор.,
м/с
влажн.,
%
обл.,
%
осадки,
мм/ч
давл.,
гПа
погр.,
м
17 мая, пн
пн1700:00+9з11919 0.0 101010
03:00+8вюв11946 0.0 101011
06:00+9вюв2882100 0.0 1010208
09:00+13вюв4137294 0.0 1009632
12:00+19юв61254100 0.0 10071586
15:00+15ююв41085100 2.1 1007688
18:00+14ююв41293100 3.1 1006680
21:00+12ююз2395100 3.9 1007125
18 мая, вт
вт1800:00+9юз2598100 0.0 1008144
03:00+8ссз1197100 0.0 100810
06:00+9с1295100 0.0 100771
09:00+12ссз3578100 0.0 1006353
12:00+16ссз3556100 0.0 1005835
15:00+15с3566100 1.1 1004892
18:00+11сз51196100 12.9 1003627
21:00+11сз51294100 17.4 1003705
19 мая, ср
ср1900:00+11сз3129097 0.2 1004583
03:00+10сз3995100 0.2 1004398
06:00+9сз3897100 0.0 1005306
09:00+11ссз3684100 0.0 1006434
12:00+15ссз355699 0.0 10061019
15:00+18ссз34440 0.0 10071433
18:00+18ссз234454 0.0 10071610
21:00+14всв006661 0.0 100711
20 мая, чт
чт2000:00+10с127999 0.0 100713
03:00+9ссв2285100 0.0 100833
06:00+10ссв138099 0.0 100883
09:00+14с2261100 0.0 1008457
12:00+17с2350100 0.0 10071213
15:00+16ссв2450100 0.0 10071730
18:00+15ссв3551100 0.0 10051584
21:00+12ссз2565100 0.0 1004141
21 мая, пт
пт2100:00+11з3979100 0.0 1002238
03:00+10зсз41083100 0.0 1002410
06:00+9з41080100 0.0 1002432
09:00+13зюз4863100 0.0 1003652
12:00+16зюз58415 0.0 10041978
15:00+15юз684779 0.0 10052285
18:00+13юз68498 0.0 10061868
21:00+8ююз5107331 0.1 1007919